Weather in Lebyazh'ye

Russia / Saint-Petersburg and Leningrad Oblast     59°57′30″N   29°25′02″E
temp.,
°C
wind,
m/s
gust,
m/s
humid.,
%
clouds,
%
prec.,
mm/h
press.,
hPa
HPBL,
m
4 december, sat
sat400:00−3ne81086100 0.5 996927
03:00−3ne81085100 0.9 997906
06:00−4nne7987100 0.5 999862
09:00−5nne8985100 1.0 1002742
12:00−5nne788198 0.1 1005780
15:00−5ne788099 0.2 1007833
18:00−6ne898397 0.1 1009770
21:00−7ene579196 0.4 1011604
5 december, sun
sun500:00−9e469097 0.3 1013485
03:00−10ese469098 0.6 1015448
06:00−11e579198 0.2 1016469
09:00−12ese689198 0.4 1018425
12:00−11e689096 0.1 1019523
15:00−11e698883 0.2 1020648
18:00−12e7119284 0.0 1021556
21:00−13e7119143 0.1 1022500
6 december, mon
mon600:00−13e7109245 0.0 1023443
03:00−14e7109230 0.0 1023401
06:00−14e799482 0.0 1023376
09:00−13e7997100 0.0 1023397
12:00−12e6895100 0.3 1022418
15:00−11e6793100 0.6 1021438
18:00−11ese5793100 0.4 1020433
21:00−10ese5693100 0.9 1020389
7 december, tue
tue700:00−10ese4591100 0.3 1018384
03:00−10ese3391100 0.6 1018334
06:00−10ene2289100 0.2 1017337
09:00−9ne238795 0.3 1016394
12:00−7nne348597 0.1 1016513
15:00−6n558598 0.1 1015591
18:00−6n7990100 0.2 1015448
21:00−7nnw678992 0.4 1016408
8 december, wed
wed800:00−7nnw678988 0.0 1016415
03:00−7nnw788888 0.1 1017561
06:00−7nnw788695 0.1 1017645
09:00−6nnw678495 0.1 1018677
12:00−6nw678488 0.1 1019758
15:00−5wnw788296 0.1 1019805
18:00−6nw788496 0.1 1020704
21:00−6nw678489 0.1 1022601